Regional Weather Roundup
Issued by NWS

Home | Current Version | Previous Version | Text Only | Print | Product List | Glossary Off
Versions: 1 2 3 4 5 6 7 8 9 10 11 12 13 14 15 16 17 18 19 20 21 22 23 24 25 26 27 28 29 30 31 32 33 34 35 36 37 38 39 40 41 42 43 44 45 46 47 48 49 50

000
ASUS43 KDTX 281110
RWRMI
MICHIGAN HOURLY REGIONAL WEATHER ROUNDUP
NATIONAL WEATHER SERVICE DETROIT/PONTIAC MI
700 AM EDT THU AUG 28 2014

NOTE: "FAIR" INDICATES FEW OR NO CLOUDS BELOW 12,000 FEET WITH NO
SIGNIFICANT WEATHER AND/OR OBSTRUCTION TO VISIBILITY.

MIZ047>049-052>055-059>063-066>070-074>076-081>083-281200-
SOUTHEAST LOWER MICHIGAN

CITY           SKY/WX    TMP DP  RH WIND       PRES   REMARKS
ADRIAN         CLOUDY    61  55  81 E6        30.17R
ALMA           CLEAR     49  48  96 CALM      30.19S
ANN ARBOR      MOCLDY    59  54  83 NE3       30.16R
BAD AXE          N/A     47  47 100 CALM      30.17R
DETROIT CITY   PTCLDY    61  55  81 CALM      30.16R
DETROIT        PTCLDY    60  55  83 N6        30.16R
FLINT          CLEAR     55  51  86 N5        30.17R
GROSSE ILE     MOCLDY    57  54  88 CALM      30.14R
HILLSDALE      CLOUDY    60  60  97 SE3       30.16R
HOWELL         MOCLDY    56  55  98 N3        30.17S

CITY           SKY/WX    TMP DP  RH WIND       PRES   REMARKS
JACKSON        CLOUDY    60  57  89 CALM      30.17R
LAMBERTVILLE   PTCLDY    61  54  77 NE5       30.15S
LANSING        MOCLDY    55  50  83 CALM      30.18R
LAPEER         NOT AVBL
MASON          PTCLDY    55  54  96 CALM      30.17R
MONROE         MOCLDY    59  55  88 N3        30.14R
MT. CLEMENS    CLEAR     56  51  86 NW5       30.15R
PONTIAC        PTCLDY    57  52  83 NW3       30.16R
PORT HOPE        N/A     60  54  80 VRB3      30.14R
PORT HURON     CLEAR     52  52 100 NW3       30.16R
TRI CITIES     CLEAR     51  46  83 NW3       30.19R
YPSILANTI      PTCLDY    62  55  77 CALM      30.16R
$$
MIZ043>046-050>051-056>058-064>065-071>073-077>080-281200-
SOUTHWEST LOWER MICHIGAN

CITY           SKY/WX    TMP DP  RH WIND       PRES   REMARKS
BATTLE CREEK   MOCLDY    56  52  86 NE3       30.17R
BENTON HARBOR  CLEAR     56  51  84 E7        30.15R
BIG RAPIDS     CLEAR     46  46 100 CALM      30.19R
COLDWATER      PTCLDY    58  56  94 NE5       30.15S
HOLLAND        CLEAR     56  51  84 E6        30.17S
GRAND RAPIDS   PTCLDY    53  51  93 NE7       30.18S
KALAMAZOO      CLEAR     56  51  84 CALM      30.17R
MARSHALL       CLOUDY    56  54  92 CALM      30.16R
MUSKEGON       CLEAR     53  48  83 E3        30.18R
$$
MIZ016>042-281200-
NORTHERN LOWER MICHIGAN

CITY           SKY/WX    TMP DP  RH WIND       PRES   REMARKS
ALPENA         CLEAR     45  44  97 W5        30.18R
BEAVER ISLAND  CLOUDY    50  48  94 CALM      30.19R
BELLAIRE       CLEAR     41  40  96 CALM      30.19S FOG
CADILLAC       CLEAR     38  38  99 CALM      30.19S
CHARLEVOIX     PTCLDY    48  47  93 SE5       30.21S
FRANKFORT      SUNNY     46  42  88 W3        30.18R
GAYLORD        CLEAR     43  41  93 CALM      30.19S
HARBOR SPRINGS CLEAR     44  42  93 CALM      30.20R
HOUGHTON LAKE  FOG       40  39  97 CALM      30.19S VSB 1/2
MANISTEE       CLEAR     45  43  93 CALM      30.19S
OSCODA         CLEAR     45  44  96 CALM      30.17R
PELLSTON       CLEAR     39  37  92 CALM      30.20R
TRAVERSE CITY  CLEAR     46  43  89 CALM      30.18R
$$
MIZ007>008-015-281200-
EASTERN UPPER MICHIGAN

CITY           SKY/WX    TMP DP  RH WIND       PRES   REMARKS
KINROSS        CLEAR     43  43 100 W6        30.18R
MACKINAC ISLAN CLEAR     49  48  97 NW5       30.19R
NEWBERRY       CLEAR     39  37  93 W3        30.19R
S. S. MARIE    PTCLDY    44  43  96 CALM      30.17R FOG
$$
MIZ004>006-011>014-085-281200-
CENTRAL UPPER MICHIGAN

CITY           SKY/WX    TMP DP  RH WIND       PRES   REMARKS
MANISTIQUE     CLOUDY    49  46  91 CALM      30.18S
ESCANABA       MOCLDY    54  46  76 CALM      30.18R
MENOMINEE      PTCLDY    55  52  88 CALM      30.16R
$$
MIZ001>003-009>011-084-281200-
WESTERN UPPER MICHIGAN

CITY           SKY/WX    TMP DP  RH WIND       PRES   REMARKS
IRON MOUNTAIN  CLOUDY    50  48  93 NW5       30.17S
HOUGHTON       CLEAR     45  41  86 CALM      30.16R
COPPER HARBOR    N/A     52  43  71 W5        30.15S
$$

ABBREVIATIONS USED IN REMARKS
   TC - TEMPERATURE IN CELSIUS
  WCI - WIND CHILL INDEX
   HX - HEAT INDEX
  VSB - VISIBILITY




USA.gov is the U.S. government's official web portal to all federal, state and local government web resources and services.